Regional Weather Roundup
Issued by NWS

Home | Current Version | Previous Version | Text Only | Print | Product List | Glossary On
Versions: 1 2 3 4 5 6 7 8 9 10 11 12 13 14 15 16 17 18 19 20 21 22 23 24 25 26 27 28 29 30 31 32 33 34 35 36 37 38 39 40 41 42 43 44 45 46 47 48 49 50
000
ASUS45 KTFX 040710
RWRMT
MONTANA REGIONAL WEATHER ROUNDUP
NATIONAL WEATHER SERVICE GREAT FALLS MT
100 AM MDT FRI SEP 04 2015

NOTE: "FAIR" INDICATES FEW OR NO CLOUDS BELOW 12000 FEET WITH NO
SIGNIFICANT WEATHER AND/OR OBSTRUCTIONS TO VISIBILITY.

MTZ001>007-043-040800-
WEST OF THE DIVIDE

CITY           SKY/WX    TMP DP  RH WIND       PRES   REMARKS
KALISPELL      CLOUDY    49  48  97 CALM      29.97S
MISSOULA       MOCLDY    45  43  93 N3        29.99F
BUTTE          HVY RAIN  43  41  93 VRB3      30.03S FOG
MULLAN PASS    PTCLDY    38  36  92 SE3       30.00S
DEER LODGE       N/A     46  45  93 E5        30.04F
EUREKA           N/A     52  41  66 N5        29.98S
HAMILTON         N/A     48  48 100 NW1       29.98S
LIBBY            N/A     52  41  66 W3        29.97R
PLAINS           N/A     52  45  77 N1        29.99R
$$

MTZ008-052>055-040800-
SOUTHWEST MONTANA

CITY           SKY/WX    TMP DP  RH WIND       PRES   REMARKS
BOZEMAN        MOCLDY    50  46  86 S7        29.94F
DILLON         CLOUDY    49  41  74 W6        30.00R
W YELLOWSTONE  MOCLDY    46  45  93 CALM      29.99S
$$

MTZ009-010-012-014-046-048-049-054-040800-
EAST SLOPES AND CENTRAL MONTANA

CITY           SKY/WX    TMP DP  RH WIND       PRES   REMARKS
CUT BANK       CLOUDY    48  46  93 S6        29.99R
GREAT FALLS    RAIN      49  48  97 SE7       30.00S
MALMSTROM AFB  LGT RAIN  48  48 100 E5        30.00R
HELENA         LGT RAIN  50  46  86 SW6       29.99S FOG
CONRAD           N/A     49  49 100 E8        30.01R
$$

MTZ011-013-016-021-045-047-050-051-040800-
NORTH CENTRAL MONTANA

CITY           SKY/WX    TMP DP  RH WIND       PRES   REMARKS
HAVRE          CLOUDY    52  47  83 NE10      29.99S
LEWISTOWN      MOCLDY    49  44  83 SW12      30.01R
N BAR RANCH      N/A     48  43  81 NW9G16    29.97R
CHINOOK          N/A     54  48  82 NW6       29.98R
FORT BENTON      N/A     52  50  93 W5        30.00S
$$

MTZ017>020-022>027-061-062-040800-
NORTHEAST MONTANA

CITY           SKY/WX    TMP DP  RH WIND       PRES   REMARKS
GLASGOW        MOCLDY    62  38  40 NE28G38   29.83S
JORDAN           N/A     63  38  39 N18       29.81S
SIDNEY         CLOUDY    68  45  42 N13         N/A
WOLF POINT     CLOUDY    66  40  38 N16G26    29.84R
MALTA            N/A     57  36  45 N9        29.90R
PLENTYWOOD       N/A     57  46  67 N17       29.85F
POPLAR           N/A     63  45  51 N16       29.80F
$$

MTZ028>42-056>058-040800-
SOUTHCENTRAL AND SOUTHEAST MONTANA

CITY           SKY/WX    TMP DP  RH WIND       PRES   REMARKS
BAKER          MOCLDY    68  55  63 NW12      29.79R
BILLINGS       PTCLDY    62  40  44 NW16      29.87R THUNDER
LIVINGSTON     MOCLDY    53  47  79 E9        29.93F
MILES CITY     CLOUDY    65  53  65 NE15      29.77R
EKALAKA          N/A     66  52  60 N5        29.79F
FORSYTH          N/A     63  54  72 NE7       29.75F
LAUREL           N/A     59  41  51 SW21      29.96R
$$

REGIONAL REPORTS...DAKOTAS

CITY           SKY/WX    TMP DP  RH WIND       PRES   REMARKS
WILLISTON      MOCLDY    69  43  38 N20G29    29.82R
MINOT          PTCLDY    66  60  81 W7        29.73R
DICKINSON      MOCLDY    68  64  87 NE8       29.71S
CROSBY         PTSUNNY   63  41  45 NW16G23   29.87R
BISMARCK       PTCLDY    77  70  79 S12       29.71R
GRAND FORKS    MOCLDY    76  72  87 S10       29.77R
FARGO          MOCLDY    78  72  81 SE13      29.78S
BUFFALO SD       N/A     64  52  64 W18       29.69R
RAPID CITY     CLOUDY    73  52  47 VRB3      29.76F
$$

REGIONAL REPORTS...WYOMING/IDAHO/WASHINGTON

CITY           SKY/WX    TMP DP  RH WIND       PRES   REMARKS
GILLETTE       CLOUDY    68  42  38 W16       29.82S
SHERIDAN       PTCLDY    57  41  55 VRB3      29.84S
BUFFALO WY     PTCLDY    64  40  41 N7        29.89F
CODY           CLOUDY    64  41  42 W12G17    29.90R
YELLOWSTONE LA   N/A     46  44  93 CALM      30.08F
IDAHO FALLS    MOCLDY    61  46  57 S12       29.85R
SALMON         CLOUDY    52  43  71 CALM      29.93R
BOISE          PTCLDY    57  43  59 W6        29.86R
SPOKANE        PTCLDY    49  31  49 S6        29.95R
$$

REGIONAL REPORTS...ALBERTA

CITY           SKY/WX    TMP DP  RH WIND       PRES   REMARKS
EDMONTON       MOCLDY    43  36  75 N7        30.06R
CALGARY        MOCLDY    45  41  87 N16G23    30.01R
LETHBRIDGE     CLOUDY    46  45  93 W3        29.96R
MEDICINE HAT   LGT RAIN  52  48  87 E7        29.98F
WATERTON GATE    N/A     46  37  71 SW13        N/A
MILK RIVER       N/A     50  46  87 S7          N/A
ONEFOUR          N/A     50  48  93 CALM        N/A
$$

REGIONAL REPORTS...SASKATCHEWAN

CITY           SKY/WX    TMP DP  RH WIND       PRES   REMARKS
SWIFT CURRENT  CLOUDY    50  43  76 NE5       30.01R
REGINA         LGT RAIN  54  45  71 N14       29.94S
SASKATOON      CLOUDY    50  46  87 NE6       30.02R
CYPRESS HILLS    N/A     45  41  87 E6          N/A
ROCKGLEN         N/A     52  41  66 N7          N/A
$$


USA.gov is the U.S. government's official web portal to all federal, state and local government web resources and services.